[[{"header":{"parameterUnit":"m.s-1","parameterCategory":1,"la1":30.2991,"la2":30.254,"lo1":-89.0895,"lo2":-89.0444,"dy":0.0017,"dx":0.0017,"nx":28,"ny":28,"refTime":"2023-11-14T03:00:00:Z","depth":0,"parameterNumber":2,"parameterNumberName":"U-component_of_WINDS"},"data":[0,0,0,0,0,0,0,0,0,0,0,0,0,0,0,0,0,0,0,0,0,0,0,0,0,0,0,0,0,0,0,0,0,0,0,0,0,0,0,0,0,0,0,0,0,0,0,0,0,0,0,0,0,0,0,0,0,0,-7.2153,-7.2155,0,-7.2347,-7.2349,-7.2351,-7.2227,-7.2221,-7.2215,-7.221,-7.2417,-7.2428,-7.2438,0,0,0,0,0,0,0,0,0,0,0,0,0,-7.1685,-7.1695,-7.2153,-7.2156,-7.2158,-7.2347,-7.2349,-7.2352,-7.2228,-7.2221,-7.2214,-7.2207,-7.2413,-7.2426,-7.2439,0,0,0,0,0,0,0,0,0,0,0,0,0,-7.1885,-7.1698,-7.2153,-7.2119,-7.2118,-7.2346,-7.2349,-7.2353,-7.223,-7.2221,-7.2212,-7.2204,-7.2409,-7.2425,-7.2441,-7.2717,0,0,-7.2491,-7.2498,0,0,0,0,0,0,0,0,-7.1874,-7.1902,-7.2121,-7.2122,-7.2121,-7.2254,-7.226,-7.2475,-7.2232,-7.2187,-7.221,-7.22,-7.237,-7.2389,-7.2445,-7.2726,-7.2735,-7.2493,-7.2503,-7.251,-7.2514,0,0,0,0,0,0,0,-7.186,-7.1893,-7.223,-7.2125,-7.2124,-7.2097,-7.2116,-7.23,-7.2326,-7.2191,-7.2182,-7.2206,-7.2369,-7.243,-7.2449,-7.2738,-7.2492,-7.2507,-7.2517,-7.2523,-7.3259,-7.3269,0,0,0,0,0,0,-7.1848,-7.1883,-7.2224,-7.2236,-7.1973,-7.2112,-7.2133,-7.222,-7.2323,-7.233,-7.2213,-7.22,-7.2406,-7.243,-7.2456,-7.2788,-7.251,-7.2525,-7.2534,-7.325,-7.3262,-7.3272,0,0,0,0,0,0,-7.1838,-7.188,-7.2216,-7.2057,-7.2098,-7.213,-7.2228,-7.2228,-7.2289,-7.234,-7.2345,-7.2271,-7.24,-7.2433,-7.2653,-7.2793,-7.2532,-7.2547,-7.3238,-7.3253,-7.3267,-7.3453,0,0,0,0,0,0,-7.1825,-7.1877,-7.198,-7.206,-7.2107,-7.2408,-7.2237,-7.2238,-7.2317,-7.2301,-7.2395,-7.2403,-7.2396,-7.2629,-7.2669,-7.2811,-7.256,-7.3226,-7.3245,-7.3262,-7.3434,-7.3472,-7.3504,0,0,0,0,0,-7.1809,-7.2025,-7.1985,-7.2027,-7.2235,-7.2416,-7.2443,-7.2428,-7.2328,-7.2434,-7.2467,-7.24,-7.2771,-7.2653,-7.2697,-7.2846,-7.3217,-7.324,-7.3261,-7.3418,-7.3464,-7.3503,0,0,0,0,0,0,-7.1963,-7.2035,-7.1992,-7.2239,-7.2322,-7.2394,-7.2526,-7.2476,-7.2591,-7.2572,-7.2551,-7.2573,-7.2804,-7.2846,-7.2714,-7.312,-7.2979,-7.3011,-7.3084,-7.3128,-7.3162,-7.3148,-7.2574,0,0,0,0,0,-7.2025,-7.2163,-7.2219,-7.2433,-7.2476,-7.2495,-7.2573,-7.2554,-7.264,-7.2675,-7.2724,-7.2813,-7.295,-7.3041,-7.3169,-7.3439,-7.346,-7.3563,-7.3598,-7.3626,-7.3655,-7.3805,-7.3853,-7.3344,-7.3344,-7.3343,0,0,-7.2156,-7.2212,-7.2301,-7.2465,-7.2527,-7.2674,-7.2525,-7.2686,-7.2795,-7.2701,-7.2911,-7.2951,-7.3049,-7.3296,-7.3407,-7.3339,-7.38,-7.3654,-7.3677,-7.369,-7.3832,-7.3881,-7.3923,-7.3359,-7.3356,-7.3354,0,0,-7.247,-7.2525,-7.271,-7.2775,-7.287,-7.2881,-7.2925,-7.3006,-7.3028,-7.3238,-7.3171,-7.3303,-7.3538,-7.3611,-7.3679,-7.4023,-7.3968,-7.4066,-7.4249,-7.4396,-7.4436,-7.4471,-7.4598,-7.4643,-7.4094,-7.4094,-7.4095,0,-7.2622,-7.2836,-7.2812,-7.2979,-7.3055,-7.2973,-7.3163,-7.3228,-7.3361,-7.3417,-7.3337,-7.3632,-7.3692,-7.3957,-7.4041,-7.4098,-7.4151,-7.4056,-7.4431,-7.4467,-7.45,-7.462,-7.4667,-7.4106,-7.4104,-7.4103,-7.4102,0,-7.302,-7.3171,-7.3309,-7.3438,-7.3529,-7.3707,-7.3713,-7.3809,-7.3783,-7.3804,-7.4022,-7.409,-7.4233,-7.4294,-7.427,-7.4557,-7.4512,-7.4432,-7.4291,-7.456,-7.4673,-7.4719,-7.4122,-7.4118,-7.4115,-7.4112,0,0,-7.3437,-7.355,-7.3602,-7.366,-7.376,-7.3878,-7.4053,-7.4189,-7.4274,-7.4369,-7.4519,-7.472,-7.4647,-7.4725,-7.4709,-7.4837,-7.511,-7.4742,-7.4744,-7.4811,-7.5435,-7.5497,-7.555,-7.5072,-7.5081,-7.5088,-7.5428,0,-7.3759,-7.4061,-7.4046,-7.4331,-7.4473,-7.4398,-7.4551,-7.4631,-7.4655,-7.4781,-7.4809,-7.4953,-7.4844,-7.4891,-7.5014,-7.5051,-7.5236,-7.5026,-7.5216,-7.5223,-7.5196,-7.5608,-7.5674,-7.5991,-7.5472,-7.5479,-7.5484,0,-7.4175,-7.4282,-7.4582,-7.4662,-7.4721,-7.4858,-7.4984,-7.5104,-7.5194,-7.5203,-7.5291,-7.5255,-7.5437,-7.5289,-7.5541,-7.5399,-7.5476,-7.5506,-7.5518,-7.5537,-7.5372,-7.5643,-7.6092,-7.6141,-7.5553,-7.5548,-7.5543,0,-7.4453,-7.4673,-7.4881,-7.4933,-7.5031,-7.513,-7.5177,-7.5258,-7.5342,-7.5453,-7.5508,-7.564,-7.5713,-7.5818,-7.582,-7.5711,-7.6077,-7.5928,-7.6094,-7.6094,-7.6176,-7.6171,-7.6647,-7.6221,-7.622,-7.6219,-7.6218,0,-7.4816,-7.5003,-7.5007,-7.5136,-7.5344,-7.5326,-7.5534,-7.557,-7.5644,-7.5781,-7.5724,-7.5855,-7.5848,-7.5982,-7.5985,-7.6196,-7.6229,-7.6245,-7.6244,-7.6252,-7.625,-7.6304,-7.6283,-7.6232,-7.6229,-7.6226,-7.6224,0,-7.5163,-7.5172,-7.5395,-7.5469,-7.5493,-7.5644,-7.5709,-7.5833,-7.5852,-7.6027,-7.6067,-7.6099,-7.6254,-7.6265,-7.6445,-7.6447,-7.6704,-7.6678,-7.6673,-7.667,-7.6836,-7.6822,-7.7365,-7.7438,-7.6961,-7.6966,-7.6969,0,-7.5395,-7.5537,-7.5626,-7.5713,-7.5764,-7.5904,-7.599,-7.5978,-7.607,-7.6185,-7.6296,-7.6445,-7.6563,-7.6815,-7.6856,-7.6995,-7.6973,-7.7154,-7.6994,-7.6998,-7.6981,-7.6973,-7.699,-7.7187,-7.7192,-7.7196,-7.72,0,-7.5807,-7.5805,-7.5929,-7.6056,-7.6159,-7.6259,-7.6352,-7.6427,-7.6427,-7.6534,-7.669,-7.6782,-7.6965,-7.7115,-7.7251,-7.7302,-7.7254,-7.7249,-7.7296,-7.7307,-7.73,-7.7309,-7.6762,-7.7238,-7.7234,-7.7231,-7.7229,-7.7227,-7.6106,-7.623,-7.6313,-7.6454,-7.6522,-7.6611,-7.6732,-7.6766,-7.6895,-7.7041,-7.7027,-7.7202,-7.7292,-7.7468,-7.753,-7.7669,-7.7608,-7.7675,-7.7692,-7.7709,-7.7728,-7.7275,-7.7693,-7.7692,-7.7691,-7.769,-7.769,0,-7.6519,-7.6568,-7.6697,-7.6829,-7.6941,-7.6881,-7.6982,-7.7081,-7.7234,-7.7321,-7.7438,-7.762,-7.7766,-7.7819,-7.7962,-7.8064,-7.8045,-7.8102,-7.8096,-7.811,-7.7773,-7.772,-7.8115,-7.8115,-7.8114,-7.8114,-7.8114,-7.8114,-7.6746,-7.6954,-7.6962,-7.7205,-7.7253,-7.7422,-7.7485,-7.7568,-7.7637,-7.7842,-7.7962,-7.7994,-7.8069,-7.8218,-7.8351,-7.8363,-7.842,-7.8487,-7.8491,-7.8176,-7.8133,-7.8092,-7.8043,-7.8499,-7.8499,-7.8817,-7.882,-7.8822]},{"header":{"parameterUnit":"m.s-1","parameterCategory":1,"la1":30.2991,"la2":30.254,"lo1":-89.0895,"lo2":-89.0444,"dy":0.0017,"dx":0.0017,"nx":28,"ny":28,"refTime":"2023-11-14T03:00:00:Z","depth":0,"parameterNumber":3,"parameterNumberName":"V-component_of_WINDS"},"data":[0,0,0,0,0,0,0,0,0,0,0,0,0,0,0,0,0,0,0,0,0,0,0,0,0,0,0,0,0,0,0,0,0,0,0,0,0,0,0,0,0,0,0,0,0,0,0,0,0,0,0,0,0,0,0,0,0,0,-5.6546,-5.6544,0,-5.6388,-5.6386,-5.6384,-5.6219,-5.6217,-5.6215,-5.6213,-5.6047,-5.6044,-5.6042,0,0,0,0,0,0,0,0,0,0,0,0,0,-5.67,-5.6698,-5.6546,-5.6544,-5.6542,-5.6388,-5.6386,-5.6384,-5.622,-5.6217,-5.6214,-5.6212,-5.6047,-5.6045,-5.6042,0,0,0,0,0,0,0,0,0,0,0,0,0,-5.6597,-5.6697,-5.6546,-5.6442,-5.6431,-5.6389,-5.6386,-5.6383,-5.622,-5.6217,-5.6213,-5.621,-5.6048,-5.6045,-5.6041,-5.6088,0,0,-5.6031,-5.6029,0,0,0,0,0,0,0,0,-5.6603,-5.6591,-5.6459,-5.6449,-5.6437,-5.632,-5.6379,-5.6284,-5.6221,-5.63,-5.6213,-5.6209,-5.614,-5.6129,-5.6106,-5.6081,-5.6073,-5.6031,-5.6028,-5.6027,-5.6026,0,0,0,0,0,0,0,-5.661,-5.6597,-5.6483,-5.6457,-5.6444,-5.6401,-5.6382,-5.636,-5.6241,-5.6293,-5.6281,-5.6264,-5.6133,-5.611,-5.6101,-5.6071,-5.6031,-5.6028,-5.6025,-5.6024,-5.6071,-5.6074,0,0,0,0,0,0,-5.6634,-5.6604,-5.6488,-5.6478,-5.6513,-5.6401,-5.638,-5.6361,-5.6241,-5.6219,-5.6267,-5.6257,-5.6118,-5.6106,-5.6095,-5.6139,-5.6027,-5.6024,-5.6022,-5.6068,-5.6072,-5.6075,0,0,0,0,0,0,-5.6638,-5.6625,-5.6495,-5.6538,-5.6518,-5.6402,-5.6381,-5.6359,-5.6336,-5.6222,-5.6199,-5.6266,-5.6115,-5.61,-5.609,-5.6131,-5.6022,-5.6019,-5.6064,-5.6069,-5.6074,-5.623,0,0,0,0,0,0,-5.6643,-5.6628,-5.6646,-5.654,-5.6516,-5.6496,-5.6384,-5.6359,-5.6331,-5.6316,-5.6214,-5.6194,-5.6111,-5.6097,-5.6087,-5.6124,-5.6016,-5.606,-5.6066,-5.6072,-5.6221,-5.624,-5.6256,0,0,0,0,0,-5.6649,-5.6696,-5.6648,-5.6635,-5.6537,-5.6498,-5.6485,-5.6389,-5.6335,-5.6351,-5.6277,-5.6197,-5.6129,-5.6097,-5.6085,-5.6122,-5.6057,-5.6064,-5.6072,-5.6213,-5.6236,-5.6256,0,0,0,0,0,0,-5.6809,-5.668,-5.6625,-5.664,-5.6581,-5.6471,-5.6488,-5.6417,-5.6372,-5.636,-5.6241,-5.6219,-5.6223,-5.6171,-5.6139,-5.6159,-5.6081,-5.6087,-5.6193,-5.6214,-5.6231,-5.6243,-5.6014,0,0,0,0,0,-5.6847,-5.6828,-5.6715,-5.6739,-5.6712,-5.6606,-5.6585,-5.6516,-5.645,-5.6425,-5.635,-5.6287,-5.6251,-5.6229,-5.619,-5.6213,-5.6186,-5.6232,-5.625,-5.6265,-5.627,-5.6275,-5.6293,-5.61,-5.61,-5.61,0,0,-5.6923,-5.685,-5.6845,-5.6769,-5.6716,-5.6696,-5.6586,-5.6571,-5.6554,-5.6422,-5.6408,-5.6351,-5.6273,-5.628,-5.6278,-5.6236,-5.6318,-5.6274,-5.6287,-5.6284,-5.6284,-5.6303,-5.6319,-5.6105,-5.6104,-5.6103,0,0,-5.7052,-5.6997,-5.7009,-5.6957,-5.6878,-5.6806,-5.6809,-5.6709,-5.6666,-5.6651,-5.655,-5.6527,-5.6468,-5.6416,-5.6382,-5.6489,-5.6413,-5.6479,-5.6571,-5.6577,-5.6592,-5.6605,-5.664,-5.6655,-5.6485,-5.6486,-5.6486,0,-5.7157,-5.7126,-5.7024,-5.7014,-5.6982,-5.6862,-5.6871,-5.6826,-5.6737,-5.6717,-5.6672,-5.6593,-5.6532,-5.6523,-5.6549,-5.6526,-5.6523,-5.649,-5.6599,-5.661,-5.6621,-5.6653,-5.6667,-5.6494,-5.6493,-5.6492,-5.6492,0,-5.7257,-5.7236,-5.7255,-5.7174,-5.7143,-5.7144,-5.704,-5.7021,-5.6955,-5.6887,-5.6871,-5.6794,-5.6735,-5.6728,-5.6663,-5.6709,-5.6685,-5.6621,-5.654,-5.6649,-5.6678,-5.669,-5.6506,-5.6503,-5.6501,-5.6499,0,0,-5.7483,-5.7344,-5.7352,-5.7312,-5.7215,-5.7196,-5.719,-5.7133,-5.7118,-5.7061,-5.705,-5.7002,-5.6941,-5.6903,-5.683,-5.6836,-5.6921,-5.677,-5.6766,-5.6799,-5.6964,-5.7011,-5.7028,-5.6871,-5.6873,-5.6874,-5.6969,0,-5.7594,-5.7577,-5.7484,-5.7492,-5.747,-5.7354,-5.7348,-5.7286,-5.7223,-5.7193,-5.7121,-5.7088,-5.7012,-5.6987,-5.6987,-5.6911,-5.6953,-5.6903,-5.6857,-5.6857,-5.6879,-5.7043,-5.7094,-5.7187,-5.698,-5.6982,-5.6983,0,-5.7721,-5.7672,-5.7679,-5.7579,-5.7566,-5.7563,-5.7502,-5.7476,-5.7402,-5.7355,-5.7311,-5.7229,-5.7212,-5.7138,-5.7112,-5.708,-5.7055,-5.7015,-5.7016,-5.7007,-5.6926,-5.7036,-5.7215,-5.7229,-5.7,-5.6999,-5.6997,0,-5.7883,-5.7818,-5.7813,-5.7783,-5.7667,-5.7667,-5.7618,-5.7541,-5.7512,-5.7458,-5.7438,-5.7383,-5.7352,-5.731,-5.7214,-5.7169,-5.7197,-5.7116,-5.7155,-5.7158,-5.7166,-5.7166,-5.7342,-5.7154,-5.7153,-5.7153,-5.7153,0,-5.8016,-5.8024,-5.7884,-5.7881,-5.7886,-5.7778,-5.7785,-5.7724,-5.7656,-5.7637,-5.7533,-5.7518,-5.7393,-5.7361,-5.7286,-5.7274,-5.7261,-5.7221,-5.72,-5.7229,-5.7234,-5.721,-5.7201,-5.7157,-5.7156,-5.7155,-5.7155,0,-5.8197,-5.8104,-5.8091,-5.7982,-5.7955,-5.7963,-5.7868,-5.7859,-5.7789,-5.7766,-5.7754,-5.7642,-5.76,-5.75,-5.7432,-5.738,-5.7387,-5.7351,-5.7413,-5.7399,-5.7444,-5.7441,-5.7609,-5.7624,-5.7429,-5.7431,-5.7433,0,-5.8287,-5.8291,-5.8182,-5.8163,-5.8119,-5.8089,-5.8058,-5.7951,-5.7923,-5.7838,-5.7839,-5.7788,-5.7742,-5.7679,-5.759,-5.7536,-5.7497,-5.7559,-5.7488,-5.7516,-5.7495,-5.7495,-5.7493,-5.7575,-5.7578,-5.758,-5.7582,0,-5.8456,-5.841,-5.8371,-5.8316,-5.8283,-5.8234,-5.8179,-5.8168,-5.8047,-5.802,-5.7976,-5.7941,-5.787,-5.782,-5.7752,-5.7698,-5.7619,-5.7605,-5.7611,-5.764,-5.7674,-5.7654,-5.7454,-5.7602,-5.76,-5.7598,-5.7597,-5.7596,-5.8593,-5.859,-5.8512,-5.8472,-5.8419,-5.837,-5.8355,-5.8283,-5.8245,-5.8179,-5.8117,-5.8079,-5.8001,-5.7901,-5.7853,-5.7819,-5.7779,-5.7789,-5.779,-5.7794,-5.7806,-5.7681,-5.7807,-5.7806,-5.7805,-5.7805,-5.7804,0,-5.8755,-5.8699,-5.8663,-5.8589,-5.8557,-5.8486,-5.8421,-5.8398,-5.8366,-5.8301,-5.8257,-5.8205,-5.8155,-5.8062,-5.8004,-5.7994,-5.7956,-5.7982,-5.7981,-5.7969,-5.7846,-5.7846,-5.8014,-5.8014,-5.8014,-5.8014,-5.8014,-5.8014,-5.8835,-5.8825,-5.8769,-5.873,-5.8673,-5.8636,-5.8604,-5.8557,-5.8504,-5.8451,-5.8409,-5.835,-5.8272,-5.8207,-5.8157,-5.813,-5.8112,-5.815,-5.8112,-5.7998,-5.7979,-5.796,-5.7959,-5.8148,-5.8148,-5.8237,-5.8238,-5.8239]}]]